Regional Weather Roundup
Issued by NWS Portland, ME

Current Version | Previous Version | Graphics & Text | Print | Product List | Glossary On
Versions: 1 2 3 4 5 6 7 8 9 10 11 12 13 14 15 16 17 18 19 20 21 22 23 24 25 26 27 28 29 30 31 32 33 34 35 36 37 38 39 40 41 42 43 44 45 46 47 48 49 50
000
ASUS41 KGYX 080310
RWRGYX
WEATHER ROUNDUP FOR MAINE AND NEW HAMPSHIRE
NATIONAL WEATHER SERVICE GRAY ME
1000 PM EST SUN MAR 07 2021

MEZ002-005-006-010-012-015-018-020-021-024-026-027-029-080400-
MAINE

CITY           SKY/WX    TMP DP  RH WIND       PRES   REMARKS
PORTLAND       CLEAR     26  10  50 NW6       30.31R
SANFORD        CLEAR     25  13  60 NW7       30.30S
BAR HARBOR     CLEAR     24  11  57 NW5       30.28R
WISCASSET      CLEAR     27   9  46 VRB5      30.31R
ROCKLAND       CLEAR     26  13  57 NW3       30.29R
FRYEBURG       CLEAR     13   6  74 CALM      30.29S
LEWISTONAUBURN CLEAR     24  10  55 NW5       30.30R
AUGUSTA        CLEAR     24   9  52 NW7       30.29R
WATERVILLE     CLEAR     24  11  57 NW6       30.26S
BANGOR         CLEAR     24   9  52 NW5       30.29R
GREENVILLE       N/A     15   4  61 VRB5      30.19R
MILLINOCKET    CLEAR     21   7  54 W9        30.26S
HOULTON        CLEAR     11   3  70 CALM      30.22R
PRESQUE ISLE   CLEAR     12   4  70 CALM      30.24S
FRENCHVILLE    CLEAR     13   6  74 NW16      30.18F WCI  -3
CARIBOU        CLEAR     14   5  67 CALM      30.21S
$$

NHZ002-005-008-009-011-012-014-080400-
NEW HAMPSHIRE

CITY           SKY/WX    TMP DP  RH WIND       PRES   REMARKS
PORTSMOUTH     CLEAR     26   8  47 NW8       30.29S
ROCHESTER      CLEAR     27   9  46 NW8       30.29S
NASHUA         CLEAR     25  14  63 W5        30.33S
MANCHESTER     CLEAR     29   9  43 NW5       30.30S
CONCORD        CLEAR     26   9  48 NW12      30.32R WCI  16
LACONIA        CLEAR     23  10  57 W6        30.30R
PLYMOUTH       FAIR      23   8  52 W9        30.32S
BERLIN         PTCLDY    10   5  80 CALM      30.30R
WHITEFIELD     CLEAR      8   4  83 CALM      30.32S
JAFFREY        CLEAR     23   9  55 CALM      30.28S
KEENE          CLEAR     24  12  60 CALM      30.34R
LEBANON        CLEAR     21   8  57 NE7       30.34R
MT WASHINGTON  PTCLDY     9   0  66 NW18        N/A  WCI -10
$$

VTZ005-007-008-080400-
VERMONT

CITY           SKY/WX    TMP DP  RH WIND       PRES   REMARKS
ST JOHNSBURY     N/A     15   7  70 MISG      30.35R
MONTPELIER     CLEAR     16   6  65 NW3       30.37S
BURLINGTON     CLEAR     20   6  55 CALM      30.41S
$$

MAZ007-012-024-CTZ003-RIZ002-NYZ038-NYZ072-080400-
SOUTHERN NEW ENGLAND AND NY

CITY           SKY/WX    TMP DP  RH WIND       PRES   REMARKS
BOSTON         CLEAR     32   9  38 NW7       30.33
WORCESTER      CLEAR     26   8  46 NW5       30.28R
NANTUCKET        N/A    N/A N/A N/A MISG        N/A
PROVIDENCE     CLEAR     30  10  43 NW7       30.33S
HARTFORD       CLEAR     27  10  49 NW8       30.36R
ALBANY         CLEAR     21   5  50 W7        30.41R
NEW YORK CITY  CLEAR     35  13  40 NW15      30.38R
$$

ANZ081-ANZ082-ANZ150-NHZ014-MEZ023>029-080400-
COASTAL MARINE OBSERVATIONS

STATION/POSITION TIME  TEMP    WIND        PRES    WAVE
                       AIR SEA DIR/SP/G            HT/PER
                 (UTC) (F)     (DEG/KT/KT) (MB)    (FT/S)
MOUNT DESERT ROC 0300          320/ 15/ 17 1024.5F
ISLE OF SHOALS   0200   31     310/ 15/ 16 1025.7R
JEFFREYS LEDGE   0256      42                N/A     2/ 3
CASHES LEDGE BUO 0250   34 41              1026.0S   2/ 3
$$

.............KEY..............
   WCI - WIND CHILL
   TC  - TEMPERATURE IN CELSIUS
   VSB - VISIBILITY IN MILES
   HX  - HEAT INDEX
   FAIR- INDICATES FEW OR NO CLOUDS BELOW 12,000 FT, WITH NO
         SIGNIFICANT WEATHER AND/OR OBSTRUCTIONS TO VISIBILITY.






USA.gov is the U.S. government's official web portal to all federal, state and local government web resources and services.